| time (UTC) | temp F | wind direction | speed MPH | gust MPH | rain 1hr in | rain 24hr in | rain mn in | humidity % | barometer mb |
| 20260504184553 | 58 | 314 | 0.0 | 6.0 | 0.00 | 0.80 | 0.72 | 92 | 1008.6 |
| 20260504183102 | 58 | 278 | 0.0 | 2.0 | 0.01 | 0.80 | 0.72 | 93 | 1008.6 |
| 20260504181557 | 58 | 309 | 0.0 | 2.0 | 0.02 | 0.80 | 0.72 | 94 | 1008.7 |
| 20260504180117 | 58 | 131 | 0.0 | 1.0 | 0.02 | 0.80 | 0.72 | 94 | 1008.7 |
| 20260504174554 | 58 | 354 | 0.0 | 1.0 | 0.02 | 0.89 | 0.72 | 94 | 1008.8 |
| 20260504173055 | 58 | 3 | 0.0 | 1.0 | 0.02 | 0.88 | 0.72 | 94 | 1008.9 |
| 20260504171551 | 58 | 233 | 0.0 | 5.0 | 0.01 | 0.87 | 0.71 | 92 | 1009.1 |
| 20260504140107 | 66 | 298 | 0.0 | 4.0 | 0.00 | 0.87 | 0.70 | 78 | 1009.8 |
| 20260504130112 | 62 | 286 | 0.0 | 1.0 | 0.00 | 0.87 | 0.70 | 85 | 1010.3 |
| 20260504100104 | 55 | 60 | 0.0 | 0.0 | 0.00 | 0.87 | 0.70 | 99 | 1011.8 |
| 20260504090105 | 53 | 56 | 0.0 | 1.0 | 0.01 | 0.87 | 0.70 | 100 | 1011.9 |
| 20260504081548 | 53 | 56 | 0.0 | 0.0 | 0.10 | 0.86 | 0.69 | 100 | 1012.0 |
| 20260504080113 | 52 | 55 | 0.0 | 0.0 | 0.13 | 0.86 | 0.69 | 100 | 1012.1 |
| 20260504070105 | 52 | 224 | 0.0 | 1.0 | 0.07 | 0.73 | 0.56 | 100 | 1011.8 |
| 20260504050104 | 52 | 224 | 0.0 | 0.0 | 0.06 | 0.61 | 0.39 | 99 | 1011.3 |
| 20260504044552 | 52 | 224 | 0.0 | 0.0 | 0.05 | 0.64 | 0.37 | 99 | 1011.3 |
| 20260504043053 | 52 | 224 | 0.0 | 1.0 | 0.03 | 0.62 | 0.35 | 99 | 1011.3 |
| 20260504041605 | 52 | 225 | 0.0 | 1.0 | 0.02 | 0.60 | 0.33 | 99 | 1011.4 |
| 20260504040105 | 52 | 225 | 0.0 | 1.0 | 0.03 | 0.60 | 0.33 | 99 | 1011.5 |
| 20260504034553 | 53 | 226 | 0.0 | 0.0 | 0.05 | 0.59 | 0.32 | 99 | 1011.5 |
| 20260504033049 | 53 | 63 | 0.0 | 0.0 | 0.07 | 0.59 | 0.32 | 99 | 1011.7 |
| 20260504031549 | 53 | 63 | 0.0 | 0.0 | 0.09 | 0.57 | 0.31 | 99 | 1011.8 |
| 20260504030106 | 53 | 63 | 0.0 | 0.0 | 0.09 | 0.56 | 0.30 | 99 | 1011.8 |
| 20260504024609 | 54 | 63 | 0.0 | 0.0 | 0.07 | 0.54 | 0.28 | 99 | 1011.9 |
| 20260504023103 | 54 | 63 | 0.0 | 0.0 | 0.06 | 0.52 | 0.25 | 99 | 1011.9 |
| 20260504021556 | 54 | 63 | 0.0 | 0.0 | 0.06 | 0.50 | 0.23 | 99 | 1011.9 |
| 20260504020106 | 54 | 63 | 0.0 | 1.0 | 0.07 | 0.48 | 0.21 | 99 | 1012.0 |
| 20260504014607 | 54 | 63 | 0.0 | 0.0 | 0.08 | 0.46 | 0.20 | 99 | 1012.0 |
| 20260504013101 | 54 | 63 | 0.0 | 0.0 | 0.09 | 0.46 | 0.19 | 99 | 1012.0 |
| 20260504011559 | 54 | 63 | 0.0 | 0.0 | 0.10 | 0.43 | 0.17 | 99 | 1012.1 |
| 20260504004605 | 54 | 63 | 0.0 | 0.0 | 0.08 | 0.39 | 0.12 | 99 | 1012.4 |
| 20260504003101 | 54 | 63 | 0.0 | 0.0 | 0.06 | 0.36 | 0.09 | 98 | 1012.4 |
| 20260504001550 | 55 | 63 | 0.0 | 0.0 | 0.04 | 0.33 | 0.06 | 99 | 1012.4 |
| 20260504000139 | 54 | 63 | 0.0 | 0.0 | 0.02 | 0.31 | 0.05 | 98 | 1012.6 |
| 20260503234558 | 54 | 63 | 0.0 | 0.0 | 0.02 | 0.31 | 0.04 | 98 | 1012.8 |
| 20260503233107 | 55 | 63 | 0.0 | 0.0 | 0.01 | 0.30 | 0.03 | 98 | 1012.9 |
| 20260503231557 | 55 | 63 | 0.0 | 0.0 | 0.01 | 0.28 | 0.02 | 98 | 1013.0 |
| 20260503230053 | 55 | 63 | 0.0 | 0.0 | 0.02 | 0.28 | 0.02 | 98 | 1013.0 |
| 20260503224545 | 55 | 63 | 0.0 | 0.0 | 0.03 | 0.28 | 0.02 | 98 | 1013.0 |
| 20260503223105 | 55 | 45 | 0.0 | 2.0 | 0.03 | 0.28 | 0.02 | 98 | 1013.2 |
| 20260503221606 | 55 | 267 | 0.0 | 0.0 | 0.02 | 0.28 | 0.02 | 98 | 1013.2 |
| 20260503220003 | 55 | 266 | 0.0 | 1.0 | 0.01 | 0.27 | 0.00 | 98 | 1013.3 |
| 20260503214547 | 55 | 269 | 0.0 | 0.0 | 0.00 | 0.26 | 0.26 | 98 | 1013.3 |
| 20260503213110 | 55 | 269 | 0.0 | 1.0 | 0.00 | 0.26 | 0.26 | 98 | 1013.3 |
| 20260503211621 | 55 | 250 | 0.0 | 0.0 | 0.00 | 0.26 | 0.26 | 97 | 1013.2 |
| 20260503210047 | 55 | 250 | 0.0 | 1.0 | 0.01 | 0.26 | 0.26 | 97 | 1013.2 |
| 20260503204602 | 55 | 264 | 1.0 | 3.0 | 0.02 | 0.26 | 0.26 | 97 | 1013.0 |
| 20260503203105 | 56 | 30 | 0.0 | 0.0 | 0.02 | 0.26 | 0.26 | 97 | 1012.6 |
| 20260503201548 | 56 | 30 | 0.0 | 0.0 | 0.06 | 0.26 | 0.26 | 97 | 1012.5 |
| 20260503200049 | 56 | 30 | 0.0 | 0.0 | 0.06 | 0.25 | 0.25 | 96 | 1012.4 |
| 20260503194555 | 56 | 30 | 0.0 | 1.0 | 0.05 | 0.24 | 0.24 | 96 | 1012.4 |
| 20260503193107 | 56 | 51 | 0.0 | 1.0 | 0.04 | 0.24 | 0.24 | 96 | 1012.3 |
| 20260503191604 | 56 | 34 | 1.0 | 4.0 | 0.01 | 0.20 | 0.20 | 96 | 1011.9 |